Prof. Eribelto Manoel Reino State Airport

SBSR · São Paulo, Brasilien

METAR-Geschichte SBSR · Prof. Eribelto Manoel Reino State Airport

Unten siehst du die METARs der letzten paar Tage. Wähle ein Jahr, um ältere METARs ab dem Jahr 2007 zu durchsuchen.

24. Juni 2024

Uhrzeit Code Wetter Temp. Sichtweite Wolkendecke Wind METAR/SPECI
07:00
V
19 °C 10 km+ - 030° 030° 4 kt METAR SBSR 241000Z 03004KT CAVOK 19/12 Q1017
06:00
V
18 °C 10 km+ - 090° 090° 2 kt METAR SBSR 240900Z 09002KT CAVOK 18/12 Q1016
05:00
V
19 °C 10 km+ - 120° 120° 1 kt METAR SBSR 240800Z 12001KT CAVOK 19/12 Q1016
04:00
V
19 °C 10 km+ - 100° 100° 2 kt METAR SBSR 240700Z 10002KT CAVOK 19/13 Q1016
03:00
V
19 °C 10 km+ - 360° 360° 0 kt METAR SBSR 240600Z 00000KT CAVOK 19/13 Q1017
02:00
V
20 °C 10 km+ - 360° 360° 0 kt METAR SBSR 240500Z 00000KT CAVOK 20/13 Q1017
01:00
V
21 °C 10 km+ - 360° 360° 0 kt METAR SBSR 240400Z 00000KT CAVOK 21/12 Q1017
00:00
V
22 °C 10 km+ - 360° 360° 0 kt METAR SBSR 240300Z 00000KT CAVOK 22/11 Q1017

23. Juni 2024

Uhrzeit Code Wetter Temp. Sichtweite Wolkendecke Wind METAR/SPECI
23:00
V
23 °C 10 km+ - 360° 360° 0 kt METAR SBSR 240200Z 00000KT CAVOK 23/11 Q1017
22:00
V
24 °C 10 km+ - 050° 050° 2 kt METAR SBSR 240100Z 05002KT 9999 FEW035 24/11 Q1017
21:00
V
26 °C 10 km+ - 060° 060° 2 kt METAR SBSR 240000Z 06002KT 9999 FEW035 26/10 Q1017
20:00
V
27 °C 10 km+ - 020° 020° 3 kt METAR SBSR 232300Z 02003KT 9999 SCT030 27/11 Q1016
19:00
V
28 °C 10 km+ - 030° 030° 3 kt METAR SBSR 232200Z 03003KT 9999 SCT030 28/11 Q1016
18:00
V
29 °C 10 km+ - 030° 030° 3 kt METAR SBSR 232100Z 03003KT 9999 FEW030 SCT070 29/10 Q1015
17:00
V
29 °C 10 km+ - 010° 010° 3 kt METAR SBSR 232000Z 01003KT 9999 SCT030 SCT070 29/10 Q1015
16:00
V
30 °C 10 km+ - 340° 340° 3 kt METAR SBSR 231900Z 34003KT 9999 SCT030 SCT070 30/10 Q1015
15:00
V
31 °C 10 km+ - 020° 020° 6 kt METAR SBSR 231800Z 02006KT 9999 SCT030 31/10 Q1015
14:00
V
31 °C 10 km+ - 360° 360° 6 kt METAR SBSR 231700Z 36006KT CAVOK 31/10 Q1015
13:00
V
30 °C 10 km+ - 340° 340° 5 kt METAR SBSR 231600Z 34005KT CAVOK 30/11 Q1016
12:00
V
29 °C 10 km+ - 020° 020° 9 kt METAR SBSR 231500Z 02009KT CAVOK 29/10 Q1018
11:00
V
27 °C 10 km+ - 020° 020° 8 kt METAR SBSR 231400Z 02008KT CAVOK 27/10 Q1018
10:00
V
25 °C 10 km+ - 030° 030° 6 kt METAR SBSR 231300Z 03006KT CAVOK 25/11 Q1019
09:00
V
22 °C 10 km+ - 040° 040° 2 kt METAR SBSR 231200Z 04002KT CAVOK 22/12 Q1019
08:00
V
19 °C 10 km+ - 030° 030° 3 kt METAR SBSR 231100Z 03003KT CAVOK 19/12 Q1018
07:00
V
18 °C 10 km+ - 080° 080° 2 kt METAR SBSR 231000Z 08002KT CAVOK 18/12 Q1017
06:00
V
19 °C 10 km+ - 030° 030° 2 kt METAR SBSR 230900Z 03002KT CAVOK 19/12 Q1016
05:00
V
19 °C 10 km+ - 360° 360° 0 kt METAR SBSR 230800Z 00000KT CAVOK 19/11 Q1016
04:00
V
19 °C 10 km+ - 060° 060° 2 kt METAR SBSR 230700Z 06002KT CAVOK 19/12 Q1015
03:00
V
19 °C 10 km+ - 360° 360° 0 kt METAR SBSR 230600Z 00000KT CAVOK 19/12 Q1015
02:00
V
21 °C 10 km+ - 360° 360° 0 kt METAR SBSR 230500Z 00000KT CAVOK 21/12 Q1016
01:00
V
21 °C 10 km+ - 060° 060° 2 kt METAR SBSR 230400Z 06002KT CAVOK 21/11 Q1016
00:00
V
22 °C 10 km+ - 090° 090° 2 kt METAR SBSR 230300Z 09002KT CAVOK 22/12 Q1017

22. Juni 2024

Uhrzeit Code Wetter Temp. Sichtweite Wolkendecke Wind METAR/SPECI
23:00
V
24 °C 10 km+ - 090° 090° 2 kt METAR SBSR 230200Z 09002KT CAVOK 24/11 Q1017
22:00
V
23 °C 10 km+ - 090° 090° 2 kt METAR SBSR 230100Z 09002KT CAVOK 23/11 Q1017
21:00
V
24 °C 10 km+ - 030° 030° 2 kt METAR SBSR 230000Z 03002KT CAVOK 24/10 Q1016
20:00
V
26 °C 10 km+ - 060° 060° 4 kt METAR SBSR 222300Z 06004KT CAVOK 26/10 Q1016
19:00
V
27 °C 10 km+ 8.000 ft 060° 060° 3 kt METAR SBSR 222200Z 06003KT 9999 SCT035 BKN080 27/09 Q1015
18:00
V
29 °C 10 km+ 8.000 ft 050° 050° 2 kt METAR SBSR 222100Z 05002KT 9999 SCT035 BKN080 29/09 Q1015
17:00
V
29 °C 10 km+ 8.000 ft 010° 010° 3 kt METAR SBSR 222000Z 01003KT 9999 FEW045 BKN080 29/09 Q1015
16:00
V
30 °C 10 km+ 9.000 ft 330° 330° 4 kt METAR SBSR 221900Z 33004KT 240V030 9999 SCT045 BKN090 30/08 Q1015
15:00
V
30 °C 10 km+ 8.000 ft 360° 360° 5 kt METAR SBSR 221800Z 36005KT 9999 SCT040 BKN080 30/09 Q1015
14:00
V
30 °C 10 km+ 8.000 ft 040° 040° 7 kt METAR SBSR 221700Z 04007KT 9999 SCT035 BKN080 30/09 Q1015
13:00
V
30 °C 10 km+ 10.000 ft 020° 020° 6 kt METAR SBSR 221600Z 02006KT 9999 FEW045 BKN100 30/10 Q1016
12:00
V
29 °C 10 km+ 10.000 ft 050° 050° 8 kt METAR SBSR 221500Z 05008KT 9999 FEW045 BKN100 29/10 Q1018
11:00
V
27 °C 10 km+ - 040° 040° 10 kt METAR SBSR 221400Z 04010KT CAVOK 27/10 Q1018
10:00
V
23 °C 10 km+ - 040° 040° 7 kt METAR SBSR 221300Z 04007KT CAVOK 23/10 Q1019
09:00
V
21 °C 10 km+ - 040° 040° 5 kt METAR SBSR 221200Z 04005KT CAVOK 21/10 Q1019
08:00
V
20 °C 10 km+ 7.000 ft 060° 060° 3 kt METAR SBSR 221100Z 06003KT 9999 FEW035 BKN070 20/10 Q1018
07:00
V
19 °C 10 km+ - 090° 090° 4 kt METAR SBSR 221000Z 09004KT CAVOK 19/10 Q1017
06:00
V
18 °C 10 km+ - 060° 060° 4 kt METAR SBSR 220900Z 06004KT CAVOK 18/09 Q1016
05:00
V
19 °C 10 km+ - 070° 070° 3 kt METAR SBSR 220800Z 07003KT CAVOK 19/10 Q1016
04:00
V
19 °C 10 km+ - 090° 090° 4 kt METAR SBSR 220700Z 09004KT CAVOK 19/10 Q1016
03:00
V
20 °C 10 km+ - 060° 060° 3 kt METAR SBSR 220600Z 06003KT CAVOK 20/10 Q1016
Eine Änderung melden